"startDT [UTC]","vpos","CH4 [ppm]","stdev(CH4) [ppm]","CO2 [ppm]","stdev(CO2) [ppm]","H2O_reported [%]","stdev(H2O_reported)","CavityPressure [torr]","CavityTemp [C]","OutletValve","CH4_dry [ppm]","CO2_dry [ppm]","DasTemp [C]","EtalonTemp [C]","WarmBoxTemp [C]","MPVPosition","T_ECpre [C]","T_EC1 [C]","T_EC2 [C]","p_inlet [hPa]","p_in [hPa]","p_out [hPa]","T_inlet [C]","RH_inlet [%]","dwpt_inlet [C]","T_vent [C]","RH_vent [%]","dwpt_vent [C]","flow_vent [l min-1]","flow_inlet [l min-1]","dwpt_sample [C]","T_room [C]"
2015-08-30 00:00:00,0.0,1.93759,0.00056,387.063,0.072,1.0579,0.0076,139.999,45.000,31211.98525,1.95849,392.160,35.813,45.067,45.000,0.00,0.10,-272.74,-272.80,-17,507,-937,26.3,23.7,3.9,26.1,24.5,4.2,5.73,1.98,5.1,29.8
2015-08-30 00:01:00,0.0,1.93733,0.00040,387.145,0.111,1.0450,0.0107,140.001,45.000,31211.65392,1.95793,392.176,35.812,45.067,45.000,0.00,0.10,-272.73,-272.80,-17,507,-937,26.3,23.4,3.7,26.1,24.2,4.1,5.73,1.97,5.0,29.8
2015-08-30 00:02:00,0.0,1.93670,0.00038,387.235,0.108,1.0320,0.0104,140.000,45.000,31211.25818,1.95703,392.207,35.812,45.067,45.000,0.00,0.10,-272.73,-272.80,-17,507,-937,26.3,23.1,3.5,26.1,23.9,3.9,5.73,1.94,5.0,29.8
2015-08-30 00:03:00,0.0,1.93663,0.00052,387.102,0.119,1.0471,0.0119,139.999,45.000,31209.49443,1.95728,392.139,35.814,45.067,45.000,0.00,0.10,-272.73,-272.80,-17,507,-937,26.3,23.5,3.8,26.1,24.1,4.0,5.73,1.90,5.0,29.8
2015-08-30 00:04:00,0.0,1.93712,0.00033,387.422,0.192,1.0385,0.0097,139.997,45.000,31208.42249,1.95760,392.421,35.815,45.067,45.000,0.00,0.10,-272.73,-272.80,-17,507,-937,26.3,23.2,3.6,26.1,24.1,4.0,5.73,1.85,5.0,29.8
2015-08-30 00:05:00,0.0,1.93669,0.00049,387.620,0.068,1.0417,0.0081,139.996,45.000,31209.35703,1.95724,392.642,35.819,45.067,45.000,0.00,0.10,-272.73,-272.79,-17,507,-937,26.3,23.4,3.7,26.1,24.0,4.0,5.73,1.83,5.0,29.8
2015-08-30 00:06:00,0.0,1.93696,0.00058,387.377,0.110,1.0326,0.0114,139.999,45.000,31211.60448,1.95729,392.357,35.816,45.067,45.000,0.00,0.10,-272.74,-272.79,-17,507,-937,26.2,23.1,3.5,26.1,24.0,3.9,5.73,1.83,5.0,29.8
2015-08-30 00:07:00,0.0,1.93644,0.00055,387.472,0.153,1.0452,0.0150,139.998,45.000,31209.44504,1.95704,392.506,35.822,45.067,45.000,0.00,0.10,-272.74,-272.80,-17,507,-937,26.3,23.5,3.8,26.1,24.0,4.0,5.73,1.85,5.0,29.8
2015-08-30 00:08:00,0.0,1.93632,0.00025,387.393,0.088,1.0539,0.0168,139.998,45.000,31208.17544,1.95712,392.473,35.813,45.067,45.000,0.00,0.10,-272.73,-272.80,-17,507,-937,26.2,23.6,3.8,26.1,24.5,4.2,5.73,1.89,5.0,29.8
2015-08-30 00:09:00,0.0,1.93627,0.00039,387.404,0.126,1.0491,0.0110,139.998,45.000,31208.55829,1.95693,392.463,35.813,45.067,45.000,0.00,0.10,-272.73,-272.79,-17,507,-937,26.2,23.6,3.8,26.1,24.2,4.0,5.73,1.94,5.0,29.8
2015-08-30 00:10:00,0.0,1.93625,0.00027,387.313,0.116,1.0422,0.0125,140.000,45.000,31208.67630,1.95677,392.333,35.816,45.067,45.000,0.00,0.10,-272.74,-272.80,-17,507,-937,26.2,23.4,3.7,26.1,24.2,4.0,5.73,1.97,5.0,29.8
2015-08-30 00:11:00,0.0,1.93633,0.00035,387.262,0.082,1.0464,0.0135,140.000,45.000,31208.51829,1.95694,392.304,35.839,45.067,45.000,0.00,0.10,-272.73,-272.80,-17,507,-937,26.2,23.5,3.7,26.1,24.3,4.1,5.73,1.98,5.0,29.8
2015-08-30 00:12:00,0.0,1.93673,0.00041,387.190,0.095,1.0514,0.0042,139.997,45.000,31207.44258,1.95743,392.258,35.862,45.067,45.000,0.00,0.10,-272.73,-272.79,-17,507,-937,26.2,23.7,3.8,26.1,24.4,4.1,5.73,1.95,5.0,29.7
2015-08-30 00:13:00,0.0,1.93715,0.00041,387.024,0.104,1.0608,0.0060,140.001,45.000,31210.04223,1.95810,392.133,35.843,45.067,45.000,0.00,0.10,-272.74,-272.80,-17,507,-937,26.2,23.8,3.9,26.1,24.5,4.2,5.73,1.90,5.0,29.8
2015-08-30 00:14:00,0.0,1.93646,0.00054,386.988,0.086,1.0373,0.0173,139.997,45.000,31208.59797,1.95692,391.983,35.862,45.067,45.000,0.00,0.10,-272.73,-272.80,-17,507,-937,26.2,23.3,3.6,26.1,24.3,4.1,5.73,1.86,5.0,29.8
2015-08-30 00:15:00,0.0,1.93627,0.00036,386.935,0.064,1.0347,0.0058,139.998,45.000,31209.28221,1.95667,391.916,35.857,45.067,45.000,0.00,0.10,-272.73,-272.80,-17,507,-937,26.2,23.3,3.6,26.1,24.0,3.9,5.73,1.83,5.0,29.7
2015-08-30 00:16:00,0.0,1.93680,0.00043,386.960,0.065,1.0185,0.0112,140.002,45.000,31207.80248,1.95684,391.859,35.823,45.067,45.000,0.00,0.10,-272.73,-272.80,-17,507,-937,26.2,22.9,3.3,26.1,23.8,3.8,5.73,1.82,5.0,29.8
2015-08-30 00:17:00,0.0,1.93642,0.00038,386.928,0.059,1.0218,0.0058,140.000,45.000,31207.37680,1.95653,391.841,35.815,45.067,45.000,0.00,0.10,-272.74,-272.80,-17,507,-937,26.2,22.9,3.4,26.1,23.7,3.7,5.73,1.85,5.0,29.8
2015-08-30 00:18:00,0.0,1.93700,0.00048,386.987,0.092,1.0094,0.0074,139.999,45.000,31206.49804,1.95688,391.842,35.808,45.067,45.000,0.00,0.10,-272.73,-272.79,-17,507,-937,26.2,22.7,3.2,26.1,23.4,3.6,5.73,1.89,4.9,29.7
2015-08-30 00:19:00,0.0,1.93788,0.00064,386.836,0.104,1.0039,0.0159,139.999,45.000,31209.46398,1.95763,391.661,35.808,45.067,45.000,0.00,0.10,-272.74,-272.80,-17,507,-937,26.2,22.7,3.2,26.1,23.3,3.5,5.73,1.94,4.9,29.8
2015-08-30 00:20:00,0.0,1.93749,0.00042,386.892,0.127,1.0475,0.0064,139.998,45.000,31209.17248,1.95813,391.926,35.784,45.067,45.000,0.00,0.10,-272.74,-272.80,-17,507,-937,26.2,23.6,3.8,26.1,24.1,4.0,5.73,1.98,4.9,29.8
2015-08-30 00:21:00,0.0,1.93781,0.00031,387.088,0.077,1.0527,0.0051,140.000,45.000,31208.30966,1.95855,392.158,35.797,45.067,45.000,0.00,0.10,-272.73,-272.80,-17,507,-937,26.2,23.8,3.9,26.0,24.4,4.1,5.73,1.98,4.9,29.8
2015-08-30 00:22:00,0.0,1.93819,0.00048,386.926,0.077,1.0520,0.0113,140.000,45.000,31207.36669,1.95893,391.995,35.798,45.067,45.000,0.00,0.10,-272.72,-272.80,-17,507,-937,26.2,23.6,3.8,26.0,24.5,4.2,5.73,1.95,4.9,29.8
2015-08-30 00:23:00,0.0,1.93851,0.00047,387.043,0.093,1.0295,0.0045,139.999,45.000,31205.60968,1.95885,391.992,35.802,45.067,45.000,0.00,0.10,-272.74,-272.80,-17,507,-937,26.2,23.2,3.5,26.0,24.0,3.9,5.73,1.91,4.9,29.8
2015-08-30 00:24:00,0.0,1.93930,0.00064,386.922,0.125,1.0198,0.0150,140.000,45.000,31207.11031,1.95940,391.833,35.795,45.067,45.000,0.00,0.10,-272.73,-272.81,-17,507,-937,26.2,22.9,3.3,26.0,23.8,3.8,5.73,1.87,4.9,29.7
2015-08-30 00:25:00,0.0,1.93863,0.00049,386.946,0.054,0.9954,0.0076,139.999,45.000,31208.75576,1.95823,391.734,35.773,45.067,45.000,0.00,0.10,-272.73,-272.81,-17,507,-937,26.2,22.3,3.0,26.0,23.3,3.4,5.73,1.83,4.9,29.8
2015-08-30 00:26:00,0.0,1.93846,0.00039,386.842,0.084,1.0085,0.0144,140.000,45.000,31209.12800,1.95832,391.682,35.773,45.067,45.000,0.00,0.10,-272.74,-272.80,-17,507,-937,26.2,22.8,3.3,26.0,23.3,3.5,5.73,1.82,4.9,29.7
2015-08-30 00:27:00,0.0,1.93811,0.00056,386.943,0.126,1.0409,0.0064,139.999,45.000,31208.48317,1.95862,391.951,35.761,45.067,45.000,0.00,0.10,-272.73,-272.81,-17,507,-937,26.2,23.5,3.7,26.0,24.1,3.9,5.73,1.84,4.9,29.7
2015-08-30 00:28:00,0.0,1.93795,0.00042,387.135,0.149,1.0490,0.0064,140.001,45.000,31206.95605,1.95865,392.182,35.750,45.067,45.000,0.00,0.10,-272.73,-272.80,-17,507,-937,26.2,23.7,3.9,26.0,24.4,4.1,5.73,1.89,4.9,29.7
2015-08-30 00:29:00,0.0,1.93762,0.00051,387.140,0.042,1.0559,0.0038,140.001,45.000,31207.63080,1.95848,392.225,35.750,45.068,45.000,0.00,0.10,-272.73,-272.79,-17,507,-937,26.2,23.9,4.0,26.0,24.5,4.2,5.73,1.93,4.9,29.7
2015-08-30 00:30:00,0.0,1.93694,0.00043,387.064,0.037,1.0674,0.0059,139.999,45.000,31209.04688,1.95802,392.209,35.751,45.068,45.000,0.00,0.10,-272.74,-272.80,-17,507,-937,26.2,24.1,4.1,26.0,24.8,4.3,5.73,1.96,4.9,29.8
2015-08-30 00:31:00,0.0,1.93639,0.00040,387.229,0.070,1.0478,0.0089,139.998,45.000,31206.97824,1.95709,392.275,35.752,45.067,45.000,0.00,0.10,-272.74,-272.79,-17,507,-937,26.2,23.7,3.8,26.0,24.5,4.1,5.73,1.98,4.9,29.8
2015-08-30 00:32:00,0.0,1.93710,0.00055,387.247,0.095,1.0425,0.0075,140.000,45.000,31206.38099,1.95755,392.270,35.749,45.067,45.000,0.00,0.10,-272.73,-272.80,-17,507,-937,26.2,23.6,3.8,26.0,24.3,4.0,5.73,1.97,4.9,29.8
2015-08-30 00:33:00,0.0,1.93674,0.00050,387.277,0.063,1.0336,0.0061,140.002,45.000,31206.24987,1.95713,392.254,35.753,45.067,45.000,0.00,0.10,-272.74,-272.80,-17,507,-937,26.2,23.4,3.6,26.0,24.2,3.9,5.73,1.93,4.9,29.7
2015-08-30 00:34:00,0.0,1.93627,0.00036,387.264,0.048,1.0363,0.0081,140.001,45.000,31206.26019,1.95674,392.254,35.769,45.067,45.000,0.00,0.10,-272.74,-272.81,-17,506,-937,26.2,23.4,3.6,26.0,24.1,3.9,5.73,1.88,4.9,29.8
2015-08-30 00:35:00,0.0,1.93592,0.00046,387.398,0.041,1.0256,0.0045,140.000,45.000,31204.89760,1.95612,392.336,35.769,45.067,45.000,0.00,0.10,-272.73,-272.79,-16,507,-937,26.2,23.3,3.5,26.0,23.9,3.8,5.73,1.84,4.9,29.8
2015-08-30 00:36:00,0.0,1.93666,0.00053,387.285,0.061,1.0289,0.0045,140.000,45.000,31204.35743,1.95688,392.242,35.777,45.067,45.000,0.00,0.10,-272.73,-272.80,-16,507,-937,26.1,23.3,3.6,26.0,24.0,3.8,5.73,1.83,4.9,29.7
2015-08-30 00:37:00,0.0,1.93754,0.00046,387.252,0.056,1.0267,0.0044,140.002,45.000,31204.72555,1.95775,392.195,35.769,45.067,45.000,0.00,0.10,-272.73,-272.80,-16,507,-937,26.2,23.3,3.6,26.0,24.0,3.8,5.73,1.84,4.9,29.8
2015-08-30 00:38:00,0.0,1.93817,0.00034,387.084,0.046,1.0463,0.0059,140.000,45.000,31205.29476,1.95878,392.121,35.764,45.067,45.000,0.00,0.10,-272.73,-272.80,-16,507,-937,26.1,23.8,3.8,25.9,24.3,4.0,5.73,1.87,4.9,29.8
2015-08-30 00:39:00,0.0,1.93795,0.00047,387.042,0.051,1.0499,0.0067,139.999,45.000,31205.99463,1.95870,392.101,35.768,45.067,45.000,0.00,0.10,-272.73,-272.80,-16,507,-937,26.1,23.8,3.9,25.9,24.5,4.1,5.73,1.92,4.8,29.7
2015-08-30 00:40:00,0.0,1.93758,0.00049,387.135,0.040,1.0291,0.0064,140.000,45.000,31203.70143,1.95790,392.089,35.792,45.067,45.000,0.00,0.10,-272.74,-272.80,-16,506,-937,26.1,23.4,3.6,26.0,24.1,3.9,5.73,1.97,4.8,29.8
2015-08-30 00:41:00,0.0,1.93795,0.00038,387.044,0.043,1.0297,0.0056,139.998,45.000,31205.48898,1.95821,391.998,35.800,45.067,44.999,0.00,0.10,-272.73,-272.80,-16,507,-937,26.1,23.4,3.6,26.0,24.0,3.8,5.73,1.98,4.9,29.8
2015-08-30 00:42:00,0.0,1.93753,0.00032,387.178,0.070,1.0278,0.0041,140.001,45.000,31206.35003,1.95780,392.126,35.810,45.067,45.000,0.00,0.10,-272.73,-272.80,-16,507,-937,26.1,23.4,3.6,26.0,24.0,3.8,5.73,1.97,4.9,29.7
2015-08-30 00:43:00,0.0,1.93839,0.00076,387.061,0.093,1.0277,0.0060,139.999,45.000,31205.85781,1.95857,392.007,35.810,45.067,45.000,0.00,0.10,-272.74,-272.80,-16,507,-937,26.1,23.4,3.6,25.9,24.0,3.8,5.73,1.94,4.8,29.8
2015-08-30 00:44:00,0.0,1.93976,0.00040,386.860,0.040,1.0344,0.0057,140.001,45.000,31206.27894,1.96021,391.840,35.795,45.067,45.000,0.00,0.10,-272.74,-272.80,-16,506,-937,26.1,23.5,3.6,25.9,24.2,3.9,5.73,1.89,4.8,29.8
2015-08-30 00:45:00,0.0,1.93984,0.00067,386.862,0.039,1.0068,0.0130,140.003,45.000,31207.95905,1.95965,391.705,35.808,45.067,45.000,0.00,0.10,-272.73,-272.80,-17,506,-937,26.1,22.8,3.2,25.9,23.7,3.6,5.73,1.84,4.8,29.8
2015-08-30 00:46:00,0.0,1.94164,0.00048,386.739,0.085,0.9865,0.0072,140.001,45.000,31205.58508,1.96107,391.475,35.806,45.067,45.000,0.00,0.10,-272.73,-272.80,-16,506,-937,26.1,22.4,3.0,25.9,23.1,3.3,5.73,1.82,4.8,29.8
2015-08-30 00:47:00,0.0,1.94131,0.00051,386.848,0.049,0.9829,0.0045,139.999,45.000,31202.84407,1.96071,391.565,35.811,45.067,45.000,0.00,0.10,-272.74,-272.80,-17,506,-937,26.1,22.4,2.9,25.9,23.0,3.2,5.73,1.83,4.8,29.8
2015-08-30 00:48:00,0.0,1.94186,0.00061,386.748,0.083,0.9970,0.0045,140.000,45.000,31204.43904,1.96147,391.539,35.813,45.067,45.000,0.00,0.10,-272.73,-272.79,-17,506,-937,26.1,22.7,3.1,25.9,23.2,3.3,5.73,1.87,4.8,29.8
2015-08-30 00:49:00,0.0,1.94270,0.00032,386.630,0.062,0.9857,0.0087,139.999,45.000,31203.81519,1.96216,391.365,35.819,45.067,45.000,0.00,0.10,-272.72,-272.79,-17,506,-937,26.1,22.4,2.9,25.9,23.1,3.3,5.73,1.92,4.8,29.8
2015-08-30 00:50:00,0.0,1.94282,0.00066,386.639,0.072,0.9718,0.0089,140.002,45.000,31205.79093,1.96201,391.298,35.816,45.067,45.000,0.00,0.10,-272.74,-272.80,-17,507,-937,26.1,22.1,2.8,25.9,22.7,3.0,5.73,1.95,4.8,29.8
2015-08-30 00:51:00,0.0,1.94105,0.00110,386.875,0.192,1.0037,0.0071,140.002,45.000,31205.76774,1.96092,391.689,35.815,45.067,45.000,0.00,0.10,-272.74,-272.80,-17,506,-937,26.1,22.9,3.3,25.9,23.3,3.4,5.73,1.98,4.8,29.8
2015-08-30 00:52:00,0.0,1.93913,0.00053,387.214,0.086,1.0173,0.0045,140.000,45.000,31205.57835,1.95920,392.106,35.814,45.067,45.000,0.00,0.10,-272.73,-272.79,-17,506,-937,26.1,23.2,3.4,25.9,23.8,3.7,5.73,1.98,4.8,29.7
2015-08-30 00:53:00,0.0,1.93918,0.00034,387.234,0.048,1.0157,0.0047,140.001,45.000,31204.67033,1.95922,392.123,35.813,45.067,45.000,0.00,0.10,-272.74,-272.80,-16,506,-937,26.1,23.2,3.4,25.9,23.8,3.6,5.73,1.96,4.8,29.7
2015-08-30 00:54:00,0.0,1.93981,0.00081,387.089,0.076,1.0098,0.0100,140.000,45.000,31206.18984,1.95969,391.948,35.803,45.067,45.000,0.00,0.10,-272.74,-272.81,-16,506,-937,26.1,22.9,3.3,25.9,23.7,3.6,5.73,1.91,4.8,29.7
2015-08-30 00:55:00,0.0,1.93945,0.00047,387.236,0.090,1.0137,0.0085,139.997,45.000,31203.77990,1.95945,392.108,35.798,45.067,45.000,0.00,0.10,-272.73,-272.80,-16,507,-937,26.1,23.1,3.4,25.9,23.7,3.6,5.73,1.87,4.8,29.7
2015-08-30 00:56:00,0.0,1.93808,0.00041,387.396,0.051,1.0239,0.0022,139.999,45.000,31204.97463,1.95830,392.323,35.773,45.067,45.000,0.00,0.10,-272.73,-272.80,-16,506,-937,26.1,23.4,3.5,25.9,24.0,3.8,5.73,1.83,4.8,29.7
2015-08-30 00:57:00,0.0,1.93900,0.00069,387.321,0.047,1.0286,0.0047,139.997,45.000,31203.11043,1.95922,392.277,35.760,45.067,45.000,0.00,0.10,-272.74,-272.80,-16,506,-937,26.1,23.5,3.6,25.9,24.1,3.8,5.73,1.83,4.8,29.7
2015-08-30 00:58:00,0.0,1.93983,0.00041,387.164,0.049,1.0250,0.0106,140.002,45.000,31205.40886,1.96006,392.099,35.760,45.068,45.000,0.00,0.10,-272.74,-272.80,-16,506,-937,26.1,23.3,3.5,25.9,24.1,3.8,5.73,1.85,4.8,29.7
2015-08-30 00:59:00,0.0,1.94077,0.00070,387.101,0.117,1.0131,0.0055,140.000,45.000,31205.70787,1.96071,391.977,35.768,45.068,45.000,0.00,0.10,-272.73,-272.80,-16,506,-937,26.1,23.1,3.4,25.9,23.7,3.6,5.73,1.89,4.8,29.7
2015-08-30 01:00:00,0.0,1.94179,0.00034,386.958,0.077,1.0164,0.0073,140.001,45.000,31205.90500,1.96186,391.845,35.771,45.068,45.000,0.00,0.10,-272.74,-272.80,-16,506,-937,26.1,23.1,3.4,25.9,23.8,3.7,5.73,1.94,4.8,29.7
2015-08-30 01:01:00,0.0,1.94256,0.00089,386.891,0.104,1.0045,0.0136,140.000,45.000,31204.81826,1.96234,391.726,35.781,45.068,45.000,0.00,0.10,-272.74,-272.80,-16,506,-937,26.1,22.8,3.2,25.9,23.6,3.5,5.73,1.98,4.8,29.7
2015-08-30 01:02:00,0.0,1.94327,0.00039,386.861,0.077,0.9784,0.0084,140.000,45.000,31205.98205,1.96257,391.557,35.784,45.068,45.000,0.00,0.10,-272.73,-272.79,-16,506,-937,26.1,22.4,2.9,25.9,23.0,3.1,5.73,1.98,4.8,29.7
2015-08-30 01:03:00,0.0,1.94392,0.00085,386.694,0.038,0.9902,0.0120,140.001,45.000,31205.90242,1.96343,391.452,35.778,45.067,45.000,0.00,0.10,-272.73,-272.80,-16,506,-937,26.1,22.5,3.0,25.9,23.2,3.3,5.73,1.97,4.8,29.7
2015-08-30 01:04:00,0.0,1.94494,0.00044,386.675,0.045,0.9634,0.0057,139.999,45.000,31205.14567,1.96396,391.294,35.805,45.067,45.000,0.00,0.10,-272.74,-272.80,-16,506,-937,26.1,21.9,2.6,25.9,22.7,3.0,5.73,1.93,4.8,29.7
2015-08-30 01:05:00,0.0,1.94438,0.00039,386.815,0.054,0.9661,0.0093,140.001,45.000,31205.61154,1.96348,391.449,35.811,45.067,45.000,0.00,0.10,-272.73,-272.80,-16,506,-937,26.1,22.1,2.7,25.9,22.6,2.9,5.73,1.88,4.8,29.7
2015-08-30 01:06:00,0.0,1.94496,0.00065,386.502,0.130,0.9930,0.0049,139.998,45.000,31206.46917,1.96453,391.272,35.813,45.067,45.000,0.00,0.10,-272.73,-272.80,-16,506,-937,26.1,22.7,3.1,25.9,23.2,3.3,5.73,1.84,4.8,29.7
2015-08-30 01:07:00,0.0,1.94491,0.00046,386.566,0.087,0.9863,0.0055,139.997,45.000,31204.05455,1.96441,391.296,35.812,45.067,45.000,0.00,0.10,-272.73,-272.81,-16,506,-937,26.1,22.5,3.0,25.9,23.2,3.3,5.73,1.83,4.8,29.6
2015-08-30 01:08:00,0.0,1.94467,0.00084,386.565,0.072,0.9980,0.0050,140.000,45.000,31203.84942,1.96444,391.350,35.812,45.067,45.000,0.00,0.10,-272.73,-272.80,-16,506,-937,26.1,22.8,3.2,25.9,23.3,3.3,5.73,1.84,4.8,29.7
2015-08-30 01:09:00,0.0,1.94264,0.00043,386.910,0.074,1.0014,0.0028,140.001,45.000,31206.19148,1.96243,391.722,35.807,45.067,45.000,0.00,0.10,-272.73,-272.79,-16,506,-937,26.1,22.9,3.2,25.9,23.5,3.4,5.73,1.87,4.8,29.7
2015-08-30 01:10:00,0.0,1.94232,0.00060,386.793,0.093,1.0186,0.0045,139.998,45.000,31205.84540,1.96244,391.687,35.813,45.067,45.000,0.00,0.10,-272.73,-272.80,-16,506,-937,26.1,23.3,3.5,25.9,23.8,3.6,5.73,1.92,4.8,29.8
2015-08-30 01:11:00,0.0,1.94157,0.00037,386.915,0.070,1.0240,0.0039,139.998,45.000,31206.71855,1.96181,391.839,35.814,45.067,45.000,0.00,0.10,-272.74,-272.80,-16,506,-937,26.1,23.4,3.5,25.9,24.0,3.8,5.73,1.96,4.8,29.7
2015-08-30 01:12:00,0.0,1.94091,0.00051,386.960,0.072,1.0269,0.0050,139.998,45.000,31207.77162,1.96120,391.895,35.813,45.067,45.000,0.00,0.10,-272.74,-272.80,-16,506,-937,26.1,23.5,3.6,25.9,24.1,3.8,5.73,1.98,4.8,29.8
2015-08-30 01:13:00,0.0,1.94185,0.00121,386.909,0.137,1.0230,0.0086,139.999,45.000,31208.02965,1.96197,391.838,35.813,45.067,45.000,0.00,0.10,-272.73,-272.79,-16,506,-937,26.1,23.3,3.5,25.9,24.1,3.8,5.73,1.98,4.8,29.8
2015-08-30 01:14:00,0.0,1.94484,0.00082,386.674,0.058,0.9884,0.0108,140.002,45.000,31208.24964,1.96429,391.424,35.804,45.067,45.000,0.00,0.10,-272.74,-272.80,-16,506,-937,26.1,22.5,3.0,25.9,23.4,3.4,5.73,1.95,4.8,29.8
2015-08-30 01:15:00,0.0,1.94600,0.00053,386.556,0.105,0.9757,0.0095,140.004,45.000,31212.16063,1.96528,391.237,35.803,45.067,45.000,0.00,0.10,-272.74,-272.80,-16,506,-937,26.1,22.3,2.9,25.9,22.9,3.1,5.73,1.89,4.8,29.7
2015-08-30 01:16:00,0.0,1.94487,0.00095,386.430,0.130,1.0067,0.0070,139.998,45.000,31211.15215,1.96484,391.254,35.806,45.067,45.000,0.00,0.10,-272.73,-272.79,-16,506,-937,26.1,23.0,3.3,25.9,23.5,3.4,5.73,1.85,4.8,29.7
2015-08-30 01:17:00,0.0,1.94489,0.00095,386.575,0.103,0.9928,0.0169,140.000,45.000,31209.47825,1.96444,391.349,35.798,45.067,45.000,0.00,0.10,-272.74,-272.80,-16,506,-937,26.1,22.6,3.0,25.9,23.5,3.4,5.73,1.83,4.8,29.8
2015-08-30 01:18:00,0.0,1.94674,0.00099,386.542,0.069,0.9684,0.0217,139.999,45.000,31206.87182,1.96586,391.185,35.808,45.068,45.000,0.00,0.10,-272.74,-272.80,-16,506,-937,26.1,22.2,2.8,25.9,22.7,3.0,5.73,1.83,4.8,29.8
2015-08-30 01:19:00,0.0,1.94404,0.00081,386.737,0.081,1.0130,0.0125,140.000,45.000,31207.72942,1.96418,391.596,35.812,45.067,45.000,0.00,0.10,-272.73,-272.79,-16,506,-937,26.1,23.2,3.4,25.9,23.6,3.5,5.73,1.87,4.8,29.6
2015-08-30 01:20:00,0.0,1.94239,0.00051,386.789,0.098,1.0239,0.0072,140.000,45.000,31208.98457,1.96265,391.710,35.814,45.067,45.000,0.00,0.10,-272.73,-272.80,-16,506,-937,26.1,23.4,3.6,25.9,24.0,3.7,5.73,1.92,4.8,29.7
2015-08-30 01:21:00,0.0,1.94179,0.00052,386.902,0.085,1.0233,0.0032,140.000,45.000,31206.09846,1.96199,391.821,35.812,45.067,45.000,0.00,0.10,-272.74,-272.81,-16,506,-937,26.1,23.4,3.6,25.9,24.0,3.8,5.73,1.97,4.8,29.6
2015-08-30 01:22:00,0.0,1.94237,0.00064,386.739,0.132,1.0373,0.0064,140.001,45.000,31206.17886,1.96281,391.734,35.794,45.067,45.000,0.00,0.10,-272.73,-272.80,-16,506,-937,26.1,23.7,3.7,25.9,24.3,3.9,5.73,1.99,4.8,29.7
2015-08-30 01:23:00,0.0,1.94163,0.00144,386.888,0.198,1.0127,0.0047,140.000,45.000,31205.65834,1.96173,391.748,35.809,45.068,45.000,0.00,0.10,-272.73,-272.80,-16,506,-937,26.1,23.1,3.4,25.9,23.9,3.7,5.73,1.98,4.8,29.7
2015-08-30 01:24:00,0.0,1.94040,0.00061,387.006,0.068,1.0275,0.0046,140.001,45.000,31206.98238,1.96069,391.951,35.804,45.067,45.000,0.00,0.10,-272.74,-272.80,-16,506,-937,26.1,23.5,3.6,25.9,24.1,3.8,5.73,1.94,4.8,29.8
2015-08-30 01:25:00,0.0,1.94043,0.00055,386.994,0.093,1.0282,0.0092,140.001,45.000,31206.78507,1.96069,391.942,35.799,45.067,45.000,0.00,0.10,-272.74,-272.80,-16,506,-937,26.0,23.5,3.6,25.9,24.1,3.8,5.73,1.88,4.8,29.8
2015-08-30 01:26:00,0.0,1.94171,0.00098,386.831,0.046,1.0196,0.0116,139.998,45.000,31205.84130,1.96179,391.740,35.806,45.067,45.000,0.00,0.10,-272.73,-272.79,-16,506,-937,26.1,23.2,3.5,25.9,24.1,3.8,5.73,1.84,4.8,29.7
2015-08-30 01:27:00,0.0,1.94391,0.00052,386.610,0.058,1.0064,0.0053,140.002,45.000,31207.54276,1.96374,391.445,35.809,45.067,45.000,0.00,0.10,-272.73,-272.80,-16,506,-937,26.1,23.0,3.3,25.9,23.7,3.6,5.73,1.82,4.8,29.7
2015-08-30 01:28:00,0.0,1.94210,0.00065,386.782,0.075,1.0126,0.0055,140.000,45.000,31205.66538,1.96220,391.642,35.803,45.067,45.000,0.00,0.10,-272.73,-272.80,-16,506,-937,26.1,23.1,3.4,25.9,23.7,3.6,5.73,1.84,4.8,29.7
2015-08-30 01:29:00,0.0,1.94039,0.00050,386.953,0.047,1.0254,0.0051,140.001,45.000,31206.83093,1.96063,391.884,35.793,45.067,45.000,0.00,0.10,-272.73,-272.79,-16,506,-937,26.1,23.4,3.6,25.9,24.0,3.8,5.73,1.89,4.8,29.6
2015-08-30 01:30:00,0.0,1.94014,0.00074,387.003,0.096,1.0158,0.0086,139.997,45.000,31204.58492,1.96023,391.886,35.801,45.067,45.000,0.00,0.10,-272.73,-272.79,-16,506,-937,26.1,23.2,3.4,25.9,23.9,3.7,5.73,1.94,4.8,29.7
2015-08-30 01:31:00,0.0,1.93891,0.00069,387.142,0.082,1.0130,0.0088,139.999,45.000,31206.27853,1.95888,392.015,35.809,45.067,45.000,0.00,0.10,-272.74,-272.80,-16,506,-937,26.1,23.1,3.4,25.9,23.8,3.6,5.73,1.98,4.8,29.8
2015-08-30 01:32:00,0.0,1.94072,0.00079,386.943,0.065,1.0023,0.0098,139.999,45.000,31207.32037,1.96047,391.765,35.799,45.067,45.000,0.00,0.10,-272.73,-272.79,-16,506,-937,26.1,22.9,3.2,25.9,23.6,3.5,5.73,1.99,4.8,29.7
2015-08-30 01:33:00,0.0,1.94071,0.00051,386.787,0.082,1.0198,0.0068,139.999,45.000,31208.36295,1.96082,391.689,35.784,45.067,45.000,0.00,0.10,-272.73,-272.80,-16,506,-937,26.0,23.3,3.5,25.9,23.9,3.7,5.73,1.97,4.8,29.7
2015-08-30 01:34:00,0.0,1.94078,0.00064,386.902,0.065,1.0103,0.0063,140.001,45.000,31207.16109,1.96068,391.760,35.753,45.067,45.000,0.00,0.10,-272.73,-272.81,-16,506,-937,26.1,23.1,3.3,25.9,23.8,3.6,5.73,1.92,4.8,29.8
2015-08-30 01:35:00,0.0,1.94154,0.00059,386.686,0.066,1.0160,0.0114,140.001,45.000,31210.23202,1.96160,391.572,35.751,45.068,45.000,0.00,0.10,-272.73,-272.80,-16,506,-937,26.0,23.2,3.4,25.9,23.9,3.7,5.73,1.86,4.7,29.7
2015-08-30 01:36:00,0.0,1.94254,0.00039,386.540,0.088,1.0147,0.0080,140.005,45.000,31211.16319,1.96253,391.417,35.782,45.068,45.000,0.00,0.10,-272.73,-272.79,-16,506,-937,26.1,23.2,3.4,25.9,23.8,3.6,5.73,1.83,4.8,29.7
2015-08-30 01:37:00,0.0,1.94371,0.00050,386.538,0.059,0.9874,0.0096,140.000,45.000,31210.85767,1.96320,391.277,35.807,45.068,45.000,0.00,0.10,-272.73,-272.80,-16,506,-937,26.0,22.5,3.0,25.9,23.4,3.4,5.73,1.82,4.8,29.8
2015-08-30 01:38:00,0.0,1.94374,0.00030,386.633,0.033,0.9768,0.0068,139.999,45.000,31210.22424,1.96302,391.320,35.813,45.067,45.000,0.00,0.10,-272.74,-272.80,-16,506,-937,26.0,22.3,2.8,25.8,23.0,3.1,5.73,1.85,4.7,29.6
2015-08-30 01:39:00,0.0,1.94312,0.00051,386.718,0.076,0.9827,0.0081,140.000,45.000,31208.38193,1.96252,391.433,35.815,45.067,45.000,0.00,0.10,-272.73,-272.80,-16,506,-937,26.0,22.4,2.9,25.8,23.1,3.2,5.73,1.91,4.7,29.7
2015-08-30 01:40:00,0.0,1.94371,0.00034,386.737,0.044,0.9717,0.0062,140.000,45.000,31208.54450,1.96287,391.402,35.813,45.067,45.000,0.00,0.10,-272.73,-272.79,-16,506,-937,26.1,22.2,2.8,25.9,22.9,3.1,5.73,1.95,4.8,29.7
2015-08-30 01:41:00,0.0,1.94350,0.00039,386.607,0.070,0.9907,0.0061,140.001,45.000,31210.57850,1.96306,391.362,35.813,45.067,45.000,0.00,0.10,-272.74,-272.80,-16,506,-937,26.1,22.6,3.1,25.8,23.2,3.3,5.73,1.99,4.7,29.7
2015-08-30 01:42:00,0.0,1.94297,0.00049,386.745,0.086,0.9789,0.0069,140.002,45.000,31208.75117,1.96234,391.442,35.810,45.067,45.000,0.00,0.10,-272.73,-272.80,-16,506,-937,26.0,22.3,2.9,25.8,23.1,3.2,5.73,1.99,4.7,29.7
2015-08-30 01:43:00,0.0,1.94213,0.00048,386.775,0.058,0.9827,0.0078,139.999,45.000,31210.02407,1.96151,391.494,35.812,45.067,45.000,0.00,0.10,-272.74,-272.79,-16,506,-938,26.0,22.5,3.0,25.8,23.0,3.1,5.73,1.95,4.8,29.7
2015-08-30 01:44:00,0.0,1.94176,0.00037,386.791,0.074,0.9859,0.0056,139.997,45.000,31208.60894,1.96119,391.523,35.812,45.067,45.000,0.00,0.10,-272.73,-272.80,-16,506,-937,26.0,22.5,3.0,25.9,23.2,3.3,5.73,1.89,4.7,29.8
2015-08-30 01:45:00,0.0,1.94245,0.00024,386.799,0.052,0.9811,0.0051,139.999,45.000,31206.82731,1.96182,391.510,35.813,45.067,45.000,0.00,0.10,-272.73,-272.80,-16,506,-937,26.0,22.4,2.9,25.9,23.1,3.2,5.73,1.85,4.7,29.7
2015-08-30 01:46:00,0.0,1.94233,0.00050,386.795,0.054,0.9766,0.0053,139.998,45.000,31206.28309,1.96156,391.485,35.813,45.067,45.000,0.00,0.10,-272.73,-272.80,-16,506,-937,26.0,22.3,2.8,25.8,23.0,3.1,5.73,1.83,4.8,29.7